Terug naar catalogus

STARLINK-33719

ActiefCommunicatieVLEO
NORAD 63578·PAYLOAD·🇺🇸 United States

Gelanceerd Apr 14, 2025 vanaf Cape Canaveral Space Force Station

Loading…

Volgende Passages (komende 24 uur)

TLE

VersSource: CelesTrak SupGP

Epoch: Sep 14, 2026, 21:15 UTC

1 63578C 25076K   26257.88590278 -.00021235  00000+0 -76907-3 0  2571
2 63578  43.0036 333.1467 0001542 270.6631 185.8975 15.27590806    18

Volg STARLINK-33719 in realtime met AllMySat

Download on the App Store